N0NB Weather Reports


Display with metric or nautical units.
time (UTC)temp
F
wind
direction
speed
MPH
gust
MPH
rain 1hr
in
rain 24hr
in
rain mn
in
humidity
%
barometer
mb
20180620210516 80 315 5.0 12.0 0.00 1.29 0.90 63 1008.5
20180620205517 80 292 4.0 9.0 0.00 1.29 0.90 65 1008.7
20180620204517 79 292 6.0 11.0 0.00 1.29 0.90 63 1008.8
20180620203516 79 315 6.0 14.0 0.00 1.29 0.90 65 1009.1
20180620202518 79 292 4.0 10.0 0.00 1.29 0.90 68 1009.2
20180620201517 78 292 5.0 10.0 0.00 1.29 0.90 70 1009.2
20180620200517 78 292 5.0 12.0 0.00 1.29 0.90 72 1009.5
20180620195516 78 292 7.0 15.0 0.00 1.29 0.90 71 1009.7
20180620194517 77 315 4.0 10.0 0.00 1.29 0.90 72 1009.7
20180620193517 77 315 3.0 7.0 0.00 1.29 0.90 75 1009.8
20180620192516 76 315 5.0 10.0 0.00 1.29 0.90 75 1009.9
20180620191516 76 315 5.0 11.0 0.00 1.29 0.90 76 1009.8
20180620190517 75 337 4.0 8.0 0.00 1.29 0.90 79 1009.9
20180620185517 75 337 4.0 8.0 0.00 1.29 0.90 80 1010.1
20180620184517 74 315 3.0 7.0 0.01 1.29 0.90 81 1010.1
20180620183516 74 270 2.0 4.0 0.01 1.29 0.90 83 1010.3
20180620182516 74 292 1.0 3.0 0.01 1.29 0.90 78 1010.3
20180620181517 75 270 4.0 7.0 0.01 1.29 0.90 76 1010.3
20180620180517 75 270 4.0 8.0 0.01 1.29 0.90 76 1010.4
20180620175516 76 270 6.0 11.0 0.01 1.29 0.90 73 1010.3
20180620174517 76 270 6.0 11.0 0.00 1.28 0.89 76 1010.4
20180620173516 75 292 5.0 10.0 0.00 1.28 0.89 79 1010.6
20180620172516 74 292 5.0 10.0 0.00 1.28 0.89 78 1010.6
20180620171516 74 270 6.0 11.0 0.00 1.28 0.89 78 1010.5
20180620170516 74 270 4.0 9.0 0.00 1.28 0.89 79 1010.4
20180620165516 73 292 5.0 9.0 0.00 1.28 0.89 80 1010.3
20180620164516 73 292 4.0 9.0 0.00 1.28 0.89 83 1010.3
20180620163516 72 315 4.0 9.0 0.00 1.28 0.89 86 1010.2
20180620162516 71 315 3.0 8.0 0.00 1.28 0.89 87 1010.2
20180620161516 70 315 3.0 8.0 0.00 1.28 0.89 89 1010.3
20180620160516 69 315 3.0 8.0 0.00 1.28 0.89 90 1010.4
20180620155516 69 337 3.0 8.0 0.00 1.28 0.89 91 1010.4
20180620154516 68 292 3.0 10.0 0.00 1.28 0.89 92 1010.3
20180620153516 68 315 4.0 8.0 0.00 1.28 0.89 92 1010.3
20180620152516 67 315 5.0 10.0 0.00 1.28 0.89 93 1010.5
20180620151516 67 292 5.0 10.0 0.00 1.28 0.89 94 1010.6
20180620150516 67 292 4.0 10.0 0.00 1.28 0.89 94 1010.7
20180620145516 67 292 5.0 10.0 0.00 1.28 0.89 95 1010.7
20180620144516 67 292 4.0 7.0 0.00 1.28 0.89 95 1010.4
20180620143516 67 315 3.0 8.0 0.00 1.28 0.89 95 1010.5
20180620142516 66 315 4.0 10.0 0.01 1.28 0.89 95 1010.5
20180620141516 66 315 2.0 7.0 0.01 1.28 0.89 95 1010.5
20180620140517 66 315 2.0 5.0 0.02 1.29 0.89 95 1010.5
20180620135516 66 292 4.0 10.0 0.03 1.29 0.89 95 1010.5
20180620134516 66 315 2.0 4.0 0.04 1.29 0.89 95 1010.5
20180620133516 65 315 3.0 6.0 0.04 1.29 0.89 95 1010.4
20180620132516 65 315 4.0 8.0 0.03 1.28 0.88 95 1010.4
20180620131517 65 292 3.0 7.0 0.03 1.28 0.88 95 1010.3
20180620130516 66 315 2.0 5.0 0.02 1.28 0.87 95 1010.4
20180620125516 66 292 3.0 7.0 0.01 1.28 0.86 95 1010.3
20180620124516 66 315 1.0 4.0 0.00 1.31 0.85 95 1010.3
20180620123516 65 315 1.0 3.0 0.00 1.33 0.85 95 1010.1
20180620122516 65 315 1.0 4.0 0.00 1.34 0.85 95 1010.0
20180620121516 65 315 2.0 7.0 0.00 1.34 0.85 95 1009.8
20180620120515 65 315 1.0 4.0 0.00 1.34 0.85 95 1009.7
20180620115516 65 315 3.0 7.0 0.00 1.34 0.85 95 1009.7
20180620114516 65 315 1.0 4.0 0.00 1.34 0.85 95 1009.6
20180620113516 65 315 2.0 7.0 0.00 1.34 0.85 95 1009.4
20180620112516 64 315 1.0 4.0 0.00 1.34 0.85 95 1009.1
20180620111517 64 0.0 1.0 0.00 1.34 0.85 95 1008.9
20180620110518 64 0.0 1.0 0.00 1.34 0.85 94 1008.9
20180620105517 64 45 1.0 3.0 0.00 1.34 0.85 94 1008.9
20180620104518 64 0.0 3.0 0.00 1.34 0.85 95 1008.6
20180620103517 64 0.0 4.0 0.00 1.34 0.85 95 1008.7
20180620102518 64 0.0 3.0 0.01 1.34 0.85 95 1009.0
20180620101517 64 0 1.0 4.0 0.02 1.34 0.85 94 1009.2
20180620100518 65 45 1.0 4.0 0.05 1.34 0.85 94 1009.6
20180620095517 65 45 1.0 4.0 0.08 1.34 0.85 94 1009.7
20180620094517 65 45 2.0 5.0 0.14 1.34 0.85 94 1009.8
20180620093517 65 45 3.0 6.0 0.27 1.34 0.85 94 1009.6
20180620092517 66 45 2.0 5.0 0.45 1.33 0.84 94 1009.0
20180620090517 65 292 1.0 4.0 0.54 1.29 0.80 94 1010.0
20180620085517 66 0.0 1.0 0.54 1.25 0.76 94 1010.4
20180620084517 65 292 1.0 2.0 0.51 1.20 0.71 94 1011.0
20180620083517 66 292 1.0 4.0 0.37 1.06 0.56 94 1011.0
20180620082517 66 270 2.0 6.0 0.19 0.88 0.38 93 1010.9
20180620081517 66 292 2.0 7.0 0.14 0.83 0.34 93 1010.6
20180620080517 66 292 2.0 7.0 0.05 0.74 0.25 93 1010.5
20180620075517 66 292 3.0 6.0 0.01 0.70 0.21 93 1010.5
20180620074517 66 292 3.0 8.0 0.06 0.69 0.20 93 1010.7
20180620073517 66 292 2.0 7.0 0.15 0.69 0.20 93 1010.8
20180620072517 66 292 2.0 6.0 0.16 0.69 0.20 93 1010.7
20180620071517 66 292 3.0 7.0 0.16 0.69 0.20 93 1010.8
20180620070517 66 270 3.0 6.0 0.16 0.69 0.20 93 1010.7
20180620065517 66 292 2.0 4.0 0.16 0.69 0.20 93 1010.6
20180620064517 67 157 1.0 3.0 0.10 0.63 0.14 93 1010.1
20180620063517 66 112 2.0 4.0 0.01 0.54 0.05 93 1010.0
20180620062517 66 90 4.0 8.0 0.00 0.53 0.04 93 1009.7
20180620061517 66 67 5.0 12.0 0.00 0.53 0.04 93 1009.4
20180620060517 66 67 3.0 7.0 0.02 0.53 0.04 92 1009.6
20180620055517 66 67 4.0 10.0 0.04 0.53 0.04 93 1010.0
20180620054517 66 67 4.0 9.0 0.06 0.53 0.04 93 1009.8
20180620053517 66 45 2.0 5.0 0.18 0.53 0.04 93 1009.7
20180620052517 66 67 5.0 13.0 0.37 0.53 0.04 93 1009.5
20180620051517 67 45 5.0 13.0 0.42 0.53 0.04 93 1008.4
20180620050517 67 45 4.0 8.0 0.40 0.51 0.02 93 1009.8
20180620045516 67 0 3.0 9.0 0.39 0.49 0.49 93 1011.0
20180620044516 67 22 5.0 11.0 0.37 0.47 0.47 93 1011.6
20180620043516 67 315 5.0 15.0 0.25 0.35 0.35 92 1012.4
20180620042516 67 292 9.0 17.0 0.06 0.15 0.15 91 1012.9
20180620041516 67 292 7.0 14.0 0.01 0.10 0.10 91 1012.8
20180620040516 67 315 9.0 16.0 0.01 0.10 0.10 90 1012.2
20180620035516 68 292 8.0 19.0 0.00 0.09 0.09 89 1012.4
20180620034516 68 292 12.0 27.0 0.00 0.09 0.09 88 1012.0
20180620033516 69 292 9.0 23.0 0.00 0.09 0.09 86 1012.1
20180620032516 72 292 9.0 15.0 0.00 0.09 0.09 79 1012.4
20180620031516 72 315 2.0 5.0 0.00 0.09 0.09 80 1011.3
20180620030516 72 337 2.0 5.0 0.00 0.09 0.09 80 1011.0
20180620025516 72 315 3.0 8.0 0.00 0.09 0.09 80 1010.8
20180620024516 72 292 3.0 8.0 0.00 0.09 0.09 82 1010.8
20180620023516 71 315 3.0 8.0 0.00 0.09 0.09 84 1010.5
20180620022516 71 315 3.0 8.0 0.00 0.09 0.09 86 1010.4
20180620021516 71 0.0 4.0 0.00 0.09 0.09 86 1010.2
20180620020516 71 315 2.0 6.0 0.00 0.09 0.09 86 1010.4
20180620015516 71 315 3.0 5.0 0.00 0.09 0.09 86 1010.3
20180620014516 72 337 1.0 3.0 0.00 0.09 0.09 86 1009.6
20180620013515 72 315 2.0 5.0 0.00 0.09 0.09 85 1010.0
20180620012516 72 0.0 3.0 0.00 0.09 0.09 85 1009.7
20180620011516 72 67 1.0 2.0 0.00 0.09 0.09 84 1009.5
20180620010515 72 67 1.0 3.0 0.00 0.09 0.09 84 1009.2
20180620005516 72 67 1.0 3.0 0.00 0.09 0.09 83 1009.5
20180620004515 72 67 2.0 3.0 0.00 0.09 0.09 82 1009.6
20180620003517 72 67 1.0 4.0 0.00 0.09 0.09 81 1009.4
20180620002517 72 0.0 1.0 0.00 0.09 0.09 80 1009.6
20180620001518 72 45 2.0 5.0 0.00 0.09 0.09 79 1009.2
20180620000519 73 45 2.0 5.0 0.00 0.09 0.09 76 1009.5
20180619235517 74 67 3.0 7.0 0.00 0.09 0.09 73 1009.5
20180619234517 75 337 2.0 7.0 0.00 0.09 0.09 70 1009.4
20180619233517 76 315 2.0 9.0 0.00 0.09 0.09 68 1009.2
20180619232518 79 315 4.0 12.0 0.00 0.09 0.09 65 1009.7
20180619231517 80 135 2.0 4.0 0.00 0.09 0.09 78 1009.5
20180619230517 80 135 5.0 8.0 0.00 0.09 0.09 79 1008.7
20180619225519 80 135 8.0 16.0 0.00 0.09 0.09 78 1008.7
20180619224517 81 157 7.0 15.0 0.00 0.09 0.09 78 1009.1
20180619223517 81 157 8.0 15.0 0.00 0.09 0.09 77 1009.4
20180619222517 82 157 9.0 14.0 0.00 0.10 0.09 75 1009.8
20180619221517 84 135 10.0 15.0 0.00 0.11 0.09 72 1009.2
20180619215518 84 157 13.0 21.0 0.00 0.17 0.09 73 1009.3
20180619214517 84 135 12.0 19.0 0.00 0.21 0.09 73 1009.7
20180619213517 84 157 10.0 16.0 0.00 0.33 0.09 74 1009.7
20180619212517 84 135 8.0 14.0 0.00 0.63 0.09 75 1009.9
20180619211517 84 135 10.0 17.0 0.00 1.16 0.09 74 1010.1